This is the latest recevied weather packets stored in our database for station/object EA5JJP-10. If no packets are shown the sender has not sent any weather packets the latest 10 day(s).
| Time | Temp. | Humidity | Pressure | Rain* | Wind** | Luminosity | Snow |
|---|---|---|---|---|---|---|---|
| 1777354065 | 9.44° C | 57% | 909.9 hPa | - | - | - | - |
| 1777354019 | 9.44° C | 57% | 909.9 hPa | - | - | - | - |
| 1777353118 | 8.89° C | 58% | 909.6 hPa | - | - | - | - |
| 1777352291 | 8.89° C | 55% | 909.4 hPa | - | - | - | - |
| 1777352218 | 8.89° C | 55% | 909.4 hPa | - | - | - | - |
| 1777351318 | 8.89° C | 57% | 909.3 hPa | - | - | - | - |
| 1777350418 | 8.33° C | 57% | 909.2 hPa | - | - | - | - |
| 1777349519 | 8.33° C | 56% | 909.3 hPa | - | - | - | - |
| 1777348687 | 8.33° C | 52% | 909.4 hPa | - | - | - | - |
| 1777348620 | 8.33° C | 52% | 909.4 hPa | - | - | - | - |
| 1777347725 | 8.89° C | 51% | 909.4 hPa | - | - | - | - |
| 1777346831 | 8.89° C | 50% | 909.4 hPa | - | - | - | - |
| 1777345933 | 8.89° C | 52% | 909.4 hPa | - | - | - | - |
| 1777345088 | 8.89° C | 48% | 909.4 hPa | - | - | - | - |
| 1777345027 | 8.89° C | 48% | 909.4 hPa | - | - | - | - |
| 1777344129 | 8.89° C | 48% | 909.6 hPa | - | - | - | - |
| 1777343228 | 9.44° C | 47% | 909.5 hPa | - | - | - | - |
| 1777342328 | 9.44° C | 46% | 909.8 hPa | - | - | - | - |
| 1777341427 | 9.44° C | 43% | 910 hPa | - | - | - | - |
| 1777340526 | 8.89° C | 49% | 910.1 hPa | - | - | - | - |
| 1777339627 | 8.89° C | 49% | 910.4 hPa | - | - | - | - |
| 1777338728 | 8.89° C | 48% | 910.6 hPa | - | - | - | - |
| 1777337823 | 9.44° C | 47% | 910.9 hPa | - | - | - | - |
| 1777336924 | 9.44° C | 44% | 910.9 hPa | - | - | - | - |
| 1777336025 | 9.44° C | 42% | 911.1 hPa | - | - | - | - |
* Rain since midnight (hover to see other rain measurements)
** Current wind speed in m/s (hover to see current wind gust speed)